Regional Weather Roundup
Issued by NWS Newport/Morehead, NC

Current Version | Previous Version | Graphics & Text | Print | Product List | Glossary Off
Versions: 1 2 3 4 5 6 7 8 9 10 11 12 13 14 15 16 17 18 19 20 21 22 23 24 25 26 27 28 29 30 31 32 33 34 35 36 37 38 39 40 41 42 43 44 45 46 47 48 49 50

000
ASUS42 KMHX 031613
RWRMHX
WEATHER ROUNDUP FOR EASTERN NORTH CAROLINA
NATIONAL WEATHER SERVICE NEWPORT/MOREHEAD CITY NC
1200 PM EDT SUN MAY 03 2015

NOTE: "FAIR" INDICATES FEW OR NO CLOUDS BELOW 12,000 FEET
WITH NO SIGNIFICANT WEATHER AND/OR OBSTRUCTIONS TO VISIBILITY

NCZ015>017-031-032-045>047-102-103-031700-
NORTH COAST

CITY           SKY/WX    TMP DP  RH WIND       PRES   REMARKS
EDENTON        SUNNY     73  52  47 W8        30.18S
ELIZABETH CITY SUNNY     76  52  43 W10       30.17S
KITTY HAWK     SUNNY     68  54  60 W9        30.17S
MANTEO         SUNNY     71  51  49 NW12G17   30.18S

$$

NCZ045>047-081-094-103-104-031700-
CENTRAL COAST

CITY           SKY/WX    TMP DP  RH WIND       PRES   REMARKS
FRISCO         SUNNY     65  56  72 VRB7      30.19R
SWANQUARTER      N/A     75 N/A N/A W8        30.15S

$$

NCZ095-097-098-100-101-031700-
SOUTHERN COAST

CITY           SKY/WX    TMP DP  RH WIND       PRES   REMARKS
BEAUFORT       SUNNY     72  54  53 S8        30.20S
CEDAR ISLAND     N/A     70 N/A N/A NW5       30.24S
JACKSONVILLE   SUNNY     75  42  30 VRB3      30.20R
PINEY ISLAND   SUNNY    N/A N/A N/A NW7       30.19S
WILMINGTON     SUNNY     76  42  29 VRB5      30.20S


$$

NCZ011>013-027>030-043-044-078>080-089-090>093-098-031700-
COASTAL PLAIN

CITY           SKY/WX    TMP DP  RH WIND       PRES   REMARKS
AHOSKIE        SUNNY     73  50  44 NW3       30.18S
CLINTON        SUNNY     74  52  44 S3        30.21S
ELIZABETHTOWN  SUNNY     76  46  35 SE3       30.21S
GOLDSBORO      SUNNY     74  50  43 W5        30.18S
GREENVILLE     SUNNY     73  50  43 W6        30.21S
HAVELOCK       SUNNY     77  44  30 VRB3      30.20S
KENANSVILLE    SUNNY     74  40  29 SW6       30.21F
KINSTON        SUNNY     75  48  38 W7        30.21S
NEW BERN       SUNNY     77  48  35 NW8       30.20S
RICHLANDS      SUNNY     77  43  29 W3        30.21S
ROCKY MOUNT    SUNNY     74  49  41 VRB6      30.19F
WASHINGTON     SUNNY     73  50  43 W8        30.20S
WHITEVILLE     MOSUNNY   74  47  38 S6        30.20S

$$

AMZ130-135-150-152-154-156-158-170-250-252-270-ANZ085-086-088-633-658-670-031700-
MARINE OBSERVATIONS

STATION/POSITION TIME  TEMP    WIND        PRES    WAVE   SWELL
                       AIR SEA DIR/SP/G            HT/PER HT/PER
                 (UTC) (F)     (DEG/KT/KT) (MB)    (FT/S) (FT/S)
CHESAPEAKE LIGHT 1500   64     280/ 13/ 14 1021.6
64 E VA BEACH    1550   57 62  240/  8/ 10 1021.1    6/11   7/11
DUCK             1500   67 53  260/  9/ 11 1020.5
2 E DUCK         1511      56                N/A     5/10   3/11
OREGON INLET     1500   69 56  300/  9/ 12 1021.6
13E OREGON INLT  1600      53                N/A     5/11   3/11
HATTERAS CG      1506   64 60  270/  7/ 10 1021.7
DIAMOND BUOY     1550   60 60  290/  6/  8 1022.4    5/11   5/11
CAPE LOOKOUT     1600   71     260/  7/  8 1022.6
BEAUFORT LAB     1506   69 62  190/  6/  7 1021.7
27 SE WRIGHTSVLE NOT AVBL
5 SE WRIGHTSVLE  NOT AVBL
225 S CAPE HAT   1550   68 69   20/ 16/ 21 1022.3    8/11   5/11
41 SE CHARLESTON 1550   69 73  310/  4/  6 1022.9    3/11   3/11

$$



USA.gov is the U.S. government's official web portal to all federal, state and local government web resources and services.